Location: Unspecified
(0.0000°N, 0.0000°E)
Time: 07:59:24
(UTC+00:00)

ISS - Visible Passes

Search period start: 22 January 2017 00:00
Search period end: 01 February 2017 00:00
Orbit: 399 x 410 km, 51.6° (Epoch: 22 January)

Date Brightness Start Highest point End Pass type
(mag) Time Alt. Az. Time Alt. Az. Time Alt. Az.
22 Jan -3.4 18:37:34 10° SSW 18:40:51 81° ESE 18:44:06 10° NE visible
24 Jan -0.6 05:20:22 10° NNE 05:22:30 16° NE 05:24:39 10° E visible
26 Jan -3.1 05:12:17 20° NNW 05:14:23 68° NE 05:17:37 10° SE visible
27 Jan -0.9 04:22:51 21° ENE 04:22:51 21° ENE 04:24:49 10° ESE visible
28 Jan -2.1 05:06:06 26° WSW 05:06:13 26° SW 05:09:00 10° S visible
29 Jan -0.4 04:16:34 15° SSE 04:16:34 15° SSE 04:17:13 10° SSE visible
